Ellsworth AFB, SD

9:28 PM MDT on June 28, 2017 (GMT -0600)
Ellsworth Air Force Base

Weather History for KRCA - January, 2013

Change the Weather History Date:

Friday, January 18, 2013

  Actual Average Record
Temperature  
Mean Temperature 44 °F -  
Max Temperature 58 °F 35 °F 60 °F (2005)
Min Temperature 31 °F 15 °F -5 °F (2008)
Degree Days  
Heating Degree Days 20    
Moisture  
Dew Point 16 °F    
Average Humidity 38    
Maximum Humidity 57    
Minimum Humidity 19    
Precipitation  
Precipitation 0.00 in - - ()
Sea Level Pressure  
Sea Level Pressure 29.95 in    
Wind  
Wind Speed 8 mph (WNW)    
Max Wind Speed 16 mph    
Max Gust Speed -    
Visibility 10 miles    
Events      
Averages and records for this station are not official NWS values.
T = Trace of Precipitation, MM = Missing Value Source: NWS Daily Summary

Daily Weather History Graph

Daily Weather History Graph

Search for Another Location

Airport or City:

Trip Planner

Search our weather history database for the weather conditions in past years. The results will help you decide how hot, cold, wet, or windy it might be!

Date:

Astronomy

Jan. 18, 2013 Rise Set
Actual Time 7:22 AM MST 4:43 PM MST
Civil Twilight 6:50 AM MST 5:15 PM MST
Nautical Twilight 6:14 AM MST 5:51 PM MST
Astronomical Twilight 5:40 AM MST 6:25 PM MST
Moon 10:43 AM MST (1/18) No Moon Set
Length of Visible Light 10h 25m
Length of Day
9h 21m
Waxing Crescent, 48% of the Moon is Illuminated
Jan 18
Waxing Crescent
Jan 18
First Quarter
Jan 26
Full
Feb 3
Last Quarter
Feb 10
New

Hourly Weather History & Observations

Time (MST) Temp. Windchill Dew Point Humidity Pressure Visibility Wind Dir Wind Speed Gust Speed Precip Events Conditions
12:55 AM 31.8 °F 26.2 °F 18.0 °F 57% 30.03 in 10.0 mi West 5.8 mph - N/A   Clear
1:55 AM 34.7 °F 29.6 °F 18.9 °F 52% 30.01 in 10.0 mi WSW 5.8 mph - N/A   Mostly Cloudy
2:55 AM 33.4 °F 25.9 °F 17.2 °F 52% 29.99 in 10.0 mi SW 9.2 mph - N/A   Clear
3:55 AM 32.5 °F 22.7 °F 17.2 °F 53% 29.98 in 10.0 mi WNW 13.8 mph - N/A   Clear
4:55 AM 35.2 °F 27.1 °F 14.9 °F 43% 29.98 in 10.0 mi WNW 11.5 mph - N/A   Clear
5:55 AM 32.4 °F - 13.5 °F 46% 29.99 in 10.0 mi Calm Calm - N/A   Clear
6:55 AM 33.8 °F 26.4 °F 14.7 °F 46% 30.00 in 10.0 mi West 9.2 mph - N/A   Clear
7:55 AM 31.3 °F 23.9 °F 14.9 °F 51% 30.01 in 10.0 mi WSW 8.1 mph - N/A   Clear
8:55 AM 39.2 °F - 15.3 °F 38% 30.02 in 10.0 mi Calm Calm - N/A   Clear
9:55 AM 46.4 °F 45.2 °F 19.8 °F 35% 30.02 in 10.0 mi SSW 3.5 mph - N/A   Partly Cloudy
10:55 AM 55.0 °F - 16.9 °F 22% 29.96 in 10.0 mi NW 16.1 mph - N/A   Clear
11:55 AM 56.8 °F - 15.6 °F 20% 29.92 in 10.0 mi WNW 13.8 mph - N/A   Clear
12:55 PM 58.3 °F - 15.4 °F 19% 29.90 in 10.0 mi NW 11.5 mph - N/A   Partly Cloudy
1:55 PM 52.7 °F - 14.2 °F 22% 29.89 in 10.0 mi NNW 13.8 mph - N/A   Clear
2:55 PM 53.2 °F - 15.4 °F 22% 29.90 in 10.0 mi NNW 10.4 mph - N/A   Partly Cloudy
3:55 PM 49.5 °F - 15.1 °F 25% 29.90 in 10.0 mi NW 5.8 mph - N/A   Partly Cloudy
4:55 PM 45.7 °F 43.4 °F 13.6 °F 28% 29.90 in 10.0 mi NW 4.6 mph - N/A   Clear
5:55 PM 37.9 °F 33.5 °F 14.4 °F 38% 29.94 in 10.0 mi West 5.8 mph - N/A   Overcast
6:55 PM 38.1 °F 32.9 °F 14.2 °F 38% 29.93 in 10.0 mi WSW 6.9 mph - N/A   Clear
7:55 PM 39.2 °F 35.9 °F 14.2 °F 36% 29.93 in 10.0 mi Variable 4.6 mph - N/A   Clear
8:55 PM 37.9 °F 33.5 °F 18.5 °F 46% 29.92 in 10.0 mi NW 5.8 mph - N/A   Mostly Cloudy
9:55 PM 38.8 °F 32.6 °F 18.9 °F 45% 29.91 in 10.0 mi NW 9.2 mph - N/A   Overcast
10:55 PM 37.4 °F 32.8 °F 19.9 °F 49% 29.90 in 10.0 mi WSW 5.8 mph - N/A   Mostly Cloudy
11:55 PM 40.8 °F 33.7 °F 16.7 °F 38% 29.90 in 10.0 mi WNW 12.7 mph - N/A   Clear